Waarnemingen

Advertentie
Mijn weer
Startbyn, Zweden (2181): temperatuur & dauwpunt: 16.07.2018 04:00:00 - 22.07.2018 04:00:00 (CEST)Startbyn, Zweden (2181): windsnelheid & windstoten: 16.07.2018 04:00:00 - 22.07.2018 04:00:00 (CEST)Startbyn, Zweden (2181): windrichting: 16.07.2018 04:00:00 - 22.07.2018 04:00:00 (CEST)Startbyn, Zweden (2181): luchtdruk: 16.07.2018 04:00:00 - 22.07.2018 04:00:00 (CEST)Startbyn, Zweden (2181): zicht: 16.07.2018 04:00:00 - 22.07.2018 04:00:00 (CEST)Startbyn, Zweden (2181): neerslag: 16.07.2018 04:00:00 - 22.07.2018 04:00:00 (CEST)
Datum & Tijd tt [°C] td [°C] ff [km/u] ff [kn] fx [km/u] fx [kn] dd ppp [hPa] vv [km] rr [mm]
22.07.2018 04:00:00 18,0 17,8 3 1 5 3 NNW 1003,6 2,1 1,7
22.07.2018 03:00:00 18,2 18,0 0 0 6 4 N 1004,0 2,1 1,4
22.07.2018 02:00:00 18,7 18,4 3 1 5 3 NO 1004,0 2,8 1,1
22.07.2018 01:00:00 19,1 18,3 0 0 5 3 N 1004,1 12 0,0
22.07.2018 00:00:00 19,9 18,4 0 0 4 2 N 1004,7 16 0,0
21.07.2018 23:00:00 20,1 17,9 2 1 4 2 W 1004,9 16 0,0
21.07.2018 22:00:00 21,2 17,8 0 0 4 2 N 1005,4 23 0,0
21.07.2018 21:00:00 22,1 17,7 0 0 5 3 N 1005,4 37 0,0
21.07.2018 20:00:00 23,1 18,4 2 1 15 8 ZO 1005,1 41 0,0
21.07.2018 19:00:00 24,6 18,8 5 3 14 7 ZO 1005,2 42 0,0
21.07.2018 18:00:00 25,0 18,2 6 3 18 10 ZO 1005,4 42 0,0
21.07.2018 17:00:00 25,2 16,6 5 3 16 8 O 1006,0 35 0,0
21.07.2018 16:00:00 23,7 17,7 6 3 29 16 O 1006,4 22 0,0
21.07.2018 15:00:00 27,3 15,6 10 5 21 11 NNO 1006,2 36 0,0
21.07.2018 14:00:00 26,6 14,4 9 5 20 11 ONO 1006,8 47 0,0
21.07.2018 13:00:00 25,4 15,7 9 5 23 13 ONO 1007,2 39 0,0
21.07.2018 12:00:00 27,2 17,1 9 5 24 13 OZO 1007,7 34 0,0
21.07.2018 11:00:00 26,7 16,0 8 4 21 11 O 1008,1 45 0,0
21.07.2018 10:00:00 26,2 19,1 6 3 16 9 ZO 1008,5 46 0,0
21.07.2018 09:00:00 24,3 19,8 7 4 17 9 ZO 1008,9 30 0,0
21.07.2018 08:00:00 19,0 18,2 2 1 10 5 WNW 1009,3 28 0,2
21.07.2018 07:00:00 16,7 16,1 5 3 13 7 W 1009,4 8 1,7
21.07.2018 06:00:00 17,2 15,2 0 0 6 3 N 1009,9 47 0,0
21.07.2018 05:00:00 16,5 14,5 2 1 6 4 WNW 1009,8 47 0,0
21.07.2018 04:00:00 16,6 14,4 0 0 7 4 N 1009,8 50 0,0
21.07.2018 03:00:00 16,1 14,6 0 0 8 4 N 1010,0 39 0,0
21.07.2018 02:00:00 14,5 13,5 0 0 3 2 N 1010,3 26 0,0
21.07.2018 01:00:00 15,1 13,6 0 0 2 1 N 1010,6 38 0,0
21.07.2018 00:00:00 16,2 14,6 0 0 3 2 N 1010,8 46 0,0
20.07.2018 23:00:00 18,1 13,6 0 0 3 2 N 1010,9 42 0,0
20.07.2018 22:00:00 20,1 14,0 0 0 3 2 N 1010,9 46 0,0
20.07.2018 21:00:00 22,7 13,2 0 0 3 2 N 1011,0 15 0,0
20.07.2018 20:00:00 25,5 14,0 2 1 11 6 ZO 1011,1 50 0,0
20.07.2018 19:00:00 27,5 12,3 5 3 11 6 ZZO 1011,1 50 0,0
20.07.2018 18:00:00 28,7 11,3 6 3 15 8 ZZO 1011,3 50 0,0
20.07.2018 17:00:00 29,0 11,5 7 4 22 12 ZO 1011,7 50 0,0
20.07.2018 16:00:00 30,0 11,5 10 5 22 12 ZZO 1012,0 39 0,0
20.07.2018 15:00:00 29,7 13,0 7 4 23 12 OZO 1012,7 39 0,0
20.07.2018 14:00:00 29,9 12,3 11 6 27 15 OZO 1012,8 47 0,0
20.07.2018 13:00:00 30,1 12,1 11 6 32 17 OZO 1013,0 37 0,0
20.07.2018 12:00:00 29,1 12,9 13 7 25 14 OZO 1013,3 42 0,0
20.07.2018 11:00:00 29,0 13,2 9 5 20 11 O 1013,7 46 0,0
20.07.2018 10:00:00 27,4 15,4 6 3 16 8 ONO 1013,9 41 0,0
20.07.2018 09:00:00 26,5 16,1 4 2 10 5 N 1014,3 37 0,0
20.07.2018 08:00:00 24,9 16,1 4 2 11 6 O 1014,5 45 0,0
20.07.2018 07:00:00 22,9 16,4 4 2 12 6 O 1014,7 48 0,0
20.07.2018 06:00:00 21,1 15,9 5 3 12 6 O 1014,8 50 0,0
20.07.2018 05:00:00 17,8 15,1 3 2 6 4 NO 1014,9 50 0,0
20.07.2018 04:00:00 14,0 13,2 0 0 4 2 N 1015,1 41 0,0
20.07.2018 03:00:00 14,3 13,3 2 1 5 3 N 1015,2 31 0,0
20.07.2018 02:00:00 14,2 12,8 0 0 4 2 N 1015,4 50 0,0
20.07.2018 01:00:00 15,0 13,0 0 0 5 3 N 1015,4 50 0,0
20.07.2018 00:00:00 16,4 12,6 0 0 3 1 N 1015,6 50 0,0
19.07.2018 23:00:00 17,8 13,7 0 0 3 2 N 1015,4 50 0,0
19.07.2018 22:00:00 20,8 13,5 0 0 3 2 N 1015,1 34 0,0
19.07.2018 21:00:00 24,1 13,6 0 0 9 5 N 1014,8 50 0,0
19.07.2018 20:00:00 27,2 12,0 6 4 13 7 ZZW 1014,6 50 0,0
19.07.2018 19:00:00 28,3 11,8 7 4 20 11 ZO 1014,6 50 0,0
19.07.2018 18:00:00 29,3 10,4 10 5 22 12 ZZO 1014,8 50 0,0
19.07.2018 17:00:00 30,0 10,5 9 5 22 12 ZO 1015,0 50 0,0
19.07.2018 16:00:00 28,9 11,5 10 5 24 13 OZO 1015,4 47 0,0
19.07.2018 15:00:00 29,3 11,8 9 5 29 16 OZO 1015,9 50 0,0
19.07.2018 14:00:00 28,3 11,8 11 6 24 13 O 1016,4 44 0,0
19.07.2018 13:00:00 28,8 14,6 9 5 24 13 O 1016,4 48 0,0
19.07.2018 12:00:00 28,4 14,2 10 5 23 12 O 1016,5 49 0,0
19.07.2018 11:00:00 28,5 15,1 8 4 20 11 OZO 1016,6 47 0,0
19.07.2018 10:00:00 27,5 16,1 7 4 14 8 O 1016,7 50 0,0
19.07.2018 09:00:00 26,7 16,3 6 4 17 9 ZO 1016,8 49 0,0
19.07.2018 08:00:00 26,0 16,8 6 3 16 9 ZO 1016,8 50 0,0
19.07.2018 07:00:00 23,4 16,7 6 4 16 9 OZO 1017,0 50 0,0
19.07.2018 06:00:00 21,7 15,8 6 4 16 9 OZO 1017,2 50 0,0
19.07.2018 05:00:00 20,5 15,9 2 1 14 8 ZO 1017,0 50 0,0
19.07.2018 04:00:00 17,0 13,9 3 2 12 6 ONO 1017,1 50 0,0
19.07.2018 03:00:00 14,3 12,3 0 0 6 3 N 1017,4 50 0,0
19.07.2018 02:00:00 14,5 12,5 0 0 4 2 N 1017,3 50 0,0
19.07.2018 01:00:00 15,4 12,9 0 0 4 2 N 1017,2 50 0,0
19.07.2018 00:00:00 16,7 12,2 0 0 4 2 N 1017,0 44 0,0
18.07.2018 23:00:00 19,0 10,8 2 1 3 2 NNO 1016,7 39 0,0
18.07.2018 22:00:00 22,9 11,0 3 2 5 3 NNO 1016,5 25 0,0
18.07.2018 21:00:00 25,2 11,0 3 2 10 6 OZO 1016,4 50 0,0
18.07.2018 20:00:00 27,5 11,1 6 3 19 10 ZO 1016,4 50 0,0
18.07.2018 19:00:00 29,2 9,8 7 4 22 12 ZO 1016,5 50 0,0
18.07.2018 18:00:00 30,4 6,3 10 5 25 14 OZO 1016,7 50 0,0
18.07.2018 17:00:00 31,0 12,4 10 5 28 15 OZO 1016,9 40 0,0
18.07.2018 16:00:00 31,8 14,1 12 7 24 13 ZZO 1017,2 33 0,0
18.07.2018 15:00:00 32,4 13,2 9 5 27 15 ZO 1017,5 50 0,0
18.07.2018 14:00:00 32,1 14,7 9 5 21 12 OZO 1018,0 50 0,0
18.07.2018 13:00:00 31,0 15,0 8 5 20 11 O 1018,3 39 0,0
18.07.2018 12:00:00 31,0 15,4 10 5 22 12 OZO 1018,6 40 0,0
18.07.2018 11:00:00 29,5 17,7 9 5 20 11 O 1018,9 42 0,0
18.07.2018 10:00:00 28,6 18,4 6 4 16 9 ONO 1019,1 35 0,0
18.07.2018 09:00:00 27,5 18,2 4 2 15 8 ONO 1019,1 33 0,0
18.07.2018 08:00:00 24,9 17,4 4 2 10 6 NO 1019,2 13 0,0
18.07.2018 07:00:00 21,9 17,3 3 1 5 3 W 1019,2 8 0,0
18.07.2018 06:00:00 19,7 16,9 0 0 5 3 N 1019,3 19 0,0
18.07.2018 05:00:00 18,0 16,0 0 0 5 3 N 1019,4 28 0,0
18.07.2018 04:00:00 14,7 14,2 0 0 3 1 N 1019,6 15 0,0
18.07.2018 03:00:00 14,9 14,3 0 0 3 1 N 1019,6 18 0,0
18.07.2018 02:00:00 15,1 14,0 0 0 4 2 N 1019,3 24 0,0
18.07.2018 01:00:00 16,3 14,1 0 0 2 1 N 1018,9 24 0,0
18.07.2018 00:00:00 17,5 14,4 0 0 3 1 N 1018,7 13 0,0
17.07.2018 23:00:00 19,7 14,5 0 0 2 1 N 1018,4 16 0,0
17.07.2018 22:00:00 22,0 15,1 0 0 3 1 N 1018,2 48 0,0
17.07.2018 21:00:00 24,8 14,9 0 0 10 5 N 1018,0 50 0,0
17.07.2018 20:00:00 27,1 14,8 5 3 16 9 ZZO 1017,8 50 0,0
17.07.2018 19:00:00 28,6 13,3 7 4 17 9 ZO 1017,9 50 0,0
17.07.2018 18:00:00 30,2 13,5 8 4 19 10 ZZO 1017,9 47 0,0
17.07.2018 17:00:00 30,5 12,4 10 5 21 11 ZZO 1018,0 45 0,0
17.07.2018 16:00:00 30,6 12,5 11 6 21 12 Z 1018,3 50 0,0
17.07.2018 15:00:00 30,4 13,2 10 6 21 12 ZZO 1018,6 45 0,0
17.07.2018 14:00:00 30,0 13,7 10 5 22 12 ZZO 1018,9 42 0,0
17.07.2018 13:00:00 29,0 13,2 11 6 20 11 ZZO 1019,1 47 0,0
17.07.2018 12:00:00 28,2 11,7 11 6 22 12 ZZO 1019,2 43 0,0
17.07.2018 11:00:00 26,6 12,3 10 5 17 9 Z 1019,4 39 0,0
17.07.2018 10:00:00 25,2 14,6 4 2 12 7 ZO 1019,5 42 0,0
17.07.2018 09:00:00 23,0 14,3 6 3 16 8 Z 1019,7 50 0,0
17.07.2018 08:00:00 21,9 14,8 7 4 12 7 Z 1019,8 50 0,0
17.07.2018 07:00:00 20,5 14,6 5 3 12 7 ZZO 1019,6 50 0,0
17.07.2018 06:00:00 17,8 15,1 0 0 1 1 N 1019,5 47 0,0
17.07.2018 05:00:00 16,6 15,0 0 0 3 2 N 1019,3 50 0,0
17.07.2018 04:00:00 12,8 12,5 0 0 2 1 N 1019,3 19 0,0
17.07.2018 03:00:00 13,2 12,9 0 0 3 2 N 1019,0 30 0,0
17.07.2018 02:00:00 12,9 12,3 0 0 4 2 N 1018,9 50 0,0
17.07.2018 01:00:00 13,8 12,5 0 0 2 1 N 1018,5 50 0,0
17.07.2018 00:00:00 16,1 13,4 2 1 3 2 NO 1018,2 43 0,0
16.07.2018 23:00:00 18,1 13,4 2 1 5 3 OZO 1017,8 50 0,0
16.07.2018 22:00:00 20,5 12,7 3 1 10 5 ZZO 1017,3 50 0,0
16.07.2018 21:00:00 23,2 12,8 5 3 16 9 ZZO 1016,9 50 0,0
16.07.2018 20:00:00 24,7 13,6 9 5 26 14 ZO 1016,5 50 0,0
16.07.2018 19:00:00 27,3 12,9 9 5 19 11 ZZO 1016,0 50 0,0
16.07.2018 18:00:00 29,7 7,6 4 2 12 6 ZZW 1015,8 50 0,0
16.07.2018 17:00:00 29,2 8,8 7 4 13 7 WZW 1015,6 50 0,0
16.07.2018 16:00:00 29,1 9,8 6 4 11 6 ZZW 1015,8 44 0,0
16.07.2018 15:00:00 28,7 10,4 5 3 13 7 Z 1016,0 50 0,0
16.07.2018 14:00:00 28,1 10,3 5 3 16 9 WZW 1016,1 40 0,0
16.07.2018 13:00:00 28,1 11,2 5 3 16 8 W 1016,3 50 0,0
16.07.2018 12:00:00 26,9 11,0 4 2 10 5 WZW 1016,3 50 0,0
16.07.2018 11:00:00 25,0 10,8 5 3 10 5 ZZW 1016,3 40 0,0
16.07.2018 10:00:00 23,8 10,1 4 2 11 6 NNO 1016,3 50 0,0
16.07.2018 09:00:00 22,7 10,5 3 2 10 5 W 1016,1 49 0,0
16.07.2018 08:00:00 20,7 11,6 4 2 13 7 NW 1016,1 50 0,0
16.07.2018 07:00:00 18,8 12,5 2 1 8 4 W 1016,0 50 0,0
16.07.2018 06:00:00 16,5 12,7 2 1 9 5 NW 1015,9 50 0,0
16.07.2018 05:00:00 13,0 11,4 2 1 5 3 WNW 1015,8 50 0,0
16.07.2018 04:00:00 12,3 10,5 0 0 4 2 N 1015,3 50 0,0

tt = temperatuur
td = dauwpunt
ff = windsnelheid
fx = windstoten
dd = windrichting
ppp = luchtdruk
vv = zicht
rr = neerslag

Weerstations in de omgeving